Location: ????????
(38.4362°N, 22.8767°E)
Time: 17:30:47
(UTC+00:00)

ACS3 Solar Sail - Pass Details

Date: 25 June 2024
Orbit: 992 x 1023 km, 97.4° (Epoch: 14 July)

Event Time Altitude Azimuth Distance (km) Brightness Sun altitude
Exits shadow 21:14:42 16° 232° (SW) 2,359 6.6 -25.6°
Maximum altitude 21:17:45 22° 269° (W) 2,010 6.6 -25.8°
Drops below altitude 10° 21:22:28 10° 318° (NW) 2,763 8.0 -26.1°
Sets 21:25:35 0° 334° (NNW) 3,716 9.1 -26.3°
